sat.trackr.live / text

‹ back to catalog

STARLINK-3617

NORAD 51780 · 2022-017N

PAYLOAD ACTIVE UNKNOWN

§ Identity

Operator
Country
US
Launch date
2022-02-25
Launch site
AFWTR
Launch vehicle
Mass (kg)
RCS (m²)

Purposes: comms

External: N2YO · Heavens-Above · Gunter

§ Orbital elements

Epoch: 2026-05-25T00:25:30.815328Z

Period
95.44 min
Inclination
53.2150°
Eccentricity
0.0001248
Mean motion
15.08849181 rev/d
Perigee alt
538.9 km
Apogee alt
540.6 km
Semi-major
6,917.9 km
B*
-6.5974e-5
RAAN
356.4585°
Arg perigee
91.2317°
Mean anomaly
268.8819°
Rev number
23,394

§ Raw data

STARLINK-36171 51780U 22017N   26145.01771777 -.00001338  00000+0 -65974-4 0  99992 51780  53.2150 356.4585 0001248  91.2317 268.8819 15.08849181233941

JSON: /api/v1/satellites/51780 · /tle

For live sub-satellite position, see the globe view (requires WebGL).

§ Visibility from observer

Set your observer location to see the next 7 days of passes ≥ 10°. The values pass through the URL so the page stays shareable.

No JS? Fill the form by hand. The geolocation button needs JavaScript.